Wind_Speed
18 20 21 23 24 24 25 24 24 23 23 24 25 26 26 27 28 27 27 28 29 29 30 30 30 30 31 32 32 33 34 35 36 36 37 38 39 39 36 35 34 35 37
17 21 22 24 25 26 26 27 28 28 28 29 29 29 29 31 31 31 32 33 32 32 33 33 34 36 37 38 39 39 40 41 42 43 43 43 45 45 45 44 43 41 39
19 20 23 25 27 27 27 29 31 32 33 33 33 34 33 33 34 35 36 37 36 35 35 37 38 39 41 42 43 44 45 46 47 48 49 49 49 49 49 49 49 49 48
22 21 24 27 29 29 30 32 33 35 37 37 37 38 38 36 37 39 41 41 41 40 40 42 44 46 47 48 48 48 48 49 51 52 53 53 54 55 54 55 55 57 57
20 21 23 27 31 33 33 34 34 36 38 40 42 43 41 42 42 42 43 43 42 42 44 46 48 47 48 50 51 51 53 53 54 55 56 58 57 57 58 60 63 65 65
24 22 22 22 27 33 36 38 38 39 40 40 41 42 44 45 45 46 45 44 44 46 48 49 50 52 54 55 54 55 55 55 56 56 58 58 60 62 64 68 71 69 67
29 28 27 28 26 28 34 39 41 41 43 44 44 45 45 47 47 47 48 48 49 50 52 54 55 57 57 56 58 58 57 57 58 59 59 60 65 70 74 77 71 68 69
32 31 32 32 30 29 29 32 36 41 45 47 48 49 47 47 49 50 50 50 52 53 55 57 58 58 57 58 59 57 57 58 58 60 63 69 74 79 82 82 70 75 71
34 34 34 36 35 35 34 32 35 37 41 45 49 52 53 53 50 50 52 54 55 55 57 59 60 61 64 61 61 59 58 59 62 65 71 78 84 87 86 84 82 77 77
36 36 37 36 38 39 37 37 39 40 41 43 46 50 53 56 55 57 54 55 55 56 60 61 62 66 64 61 61 60 58 63 69 74 79 86 89 87 82 75 75 77 66
40 39 39 38 40 41 41 41 41 43 44 44 45 47 49 52 54 58 58 53 53 54 59 63 60 61 60 60 61 60 64 67 74 82 88 92 84 73 62 54 45 58 79
44 41 42 42 43 43 43 43 44 44 43 43 45 48 50 50 50 52 53 53 55 53 54 55 53 58 59 59 61 64 68 75 81 85 92 89 65 51 49 43 42 44 60
44 47 46 45 46 45 45 45 45 46 44 45 47 50 51 51 51 52 51 52 53 51 53 53 55 56 57 60 65 71 75 79 85 88 83 68 54 52 49 46 45 41 43
49 50 48 49 49 49 45 46 47 48 52 52 53 54 54 53 51 51 51 52 51 53 52 51 51 56 59 65 70 74 80 83 86 81 65 59 57 54 53 49 49 41 35
50 52 52 51 51 49 49 46 47 51 53 54 57 57 54 51 50 50 52 54 55 53 53 46 50 59 62 67 72 77 81 83 81 67 56 54 53 54 55 52 49 44 35
53 54 54 55 53 52 50 51 52 53 56 59 59 56 54 53 51 53 54 57 55 54 54 50 58 62 67 72 76 76 82 83 67 54 46 45 46 49 52 53 51 48 41
55 57 58 56 54 53 52 54 56 58 58 60 58 56 56 52 51 53 55 54 52 50 49 57 59 65 70 73 74 80 82 70 52 48 47 49 51 53 51 52 53 53 48
59 60 59 57 55 54 55 56 58 60 62 66 58 54 53 51 51 54 54 50 49 53 58 55 62 66 68 73 78 79 65 52 45 48 48 53 54 54 52 53 52 55 54
61 62 61 59 59 58 57 59 60 65 68 58 56 57 54 52 51 53 51 50 53 59 62 61 66 66 68 74 77 64 49 46 45 45 41 38 42 44 46 50 50 51 53
62 62 63 62 62 62 59 60 64 66 68 57 58 59 55 50 52 48 48 52 57 60 59 60 62 64 66 73 63 50 42 45 42 38 34 35 39 42 40 42 46 50 50
61 62 64 64 66 66 63 65 66 67 62 59 60 56 51 54 46 46 49 53 55 57 57 58 60 61 69 63 50 41 42 41 36 31 33 32 35 35 33 31 34 41 43
60 60 66 67 68 69 71 70 72 71 64 58 59 51 51 53 45 47 51 54 56 56 56 57 57 63 60 53 43 37 35 35 27 28 30 32 33 34 31 30 33 38 36
56 60 65 63 64 69 72 72 70 63 57 57 52 50 54 46 44 47 50 53 53 55 56 55 58 59 49 45 39 34 30 26 28 30 32 32 29 28 27 28 32 35 38
60 60 62 66 64 69 73 75 68 62 63 55 49 51 47 40 43 45 48 49 50 51 50 52 52 44 45 38 36 31 28 24 28 31 30 23 15 13 17 24 27 29 35
59 55 60 59 63 67 70 73 70 62 55 46 49 41 36 39 43 45 46 47 47 45 47 49 45 41 45 39 37 31 22 22 30 29 21 10 7 7 14 19 22 30 29
49 49 50 60 64 65 76 63 58 56 45 48 37 36 38 40 43 44 44 43 39 39 40 40 40 41 39 34 34 30 20 22 28 20 11 12 10 9 11 18 23 28 20
Wind_Direction
275 272 269 263 262 259 254 253 255 257 257 256 257 261 265 269 272 274 276 278 281 284 284 285 286 287 289 291 293 295 297 298 298 300 301 302 302 300 295 286 282 279 276
288 279 273 267 262 262 260 261 259 258 258 260 262 260 262 266 270 274 279 279 278 277 280 281 284 288 292 294 295 297 298 298 299 300 300 301 299 299 300 297 292 285 277
303 281 275 268 264 263 263 263 264 264 262 261 261 261 263 267 272 274 274 273 270 271 274 280 285 286 288 289 291 293 295 297 298 298 298 297 295 294 292 289 286 282 276
309 294 280 274 267 264 265 268 269 268 268 267 264 265 268 269 271 273 275 276 279 282 286 288 289 290 291 291 291 291 293 295 295 296 296 294 293 293 291 291 289 288 284
304 303 295 285 280 276 271 269 267 267 267 266 266 267 269 272 273 273 274 276 280 282 284 288 288 287 286 287 289 291 293 295 294 294 293 293 292 292 292 292 288 284 280
293 295 296 298 288 280 277 276 275 273 272 271 269 269 271 272 273 273 274 276 279 282 284 287 290 291 292 292 293 293 293 292 291 290 289 289 290 290 289 286 283 281 277
288 291 291 294 299 294 286 282 279 277 276 277 275 273 274 277 277 277 278 280 282 286 291 291 292 293 294 295 294 293 292 291 290 289 288 290 290 288 285 283 284 279 276
286 289 291 293 295 301 297 291 287 284 279 277 279 278 276 277 278 280 282 284 287 288 289 288 289 289 288 290 290 288 288 288 288 290 294 291 290 288 286 285 279 277 268
284 286 289 292 291 294 300 297 291 288 284 280 278 279 279 279 277 278 281 283 284 285 285 285 289 290 286 287 292 291 292 292 294 292 291 291 290 289 287 283 277 268 273
280 283 285 287 288 291 294 299 300 295 292 288 285 282 280 280 280 276 276 277 280 281 282 282 284 285 286 289 289 289 288 291 294 294 293 292 290 289 286 279 272 261 252
278 280 283 285 283 286 290 296 298 296 296 294 293 291 290 290 290 289 290 291 292 292 292 290 289 288 291 292 290 289 292 294 294 292 291 292 295 292 288 285 280 265 249
279 281 284 282 283 286 289 293 297 299 296 297 297 297 295 293 292 292 294 296 295 295 294 293 289 288 291 291 291 293 294 293 291 293 293 295 293 288 285 280 282 293 261
278 283 283 281 282 283 287 290 296 295 297 299 300 299 295 293 294 294 294 295 295 294 294 291 285 290 293 293 295 295 294 294 293 293 296 292 288 283 282 277 281 289 272
280 282 281 280 283 284 288 294 292 296 296 298 303 300 296 294 293 293 295 297 296 297 292 288 291 293 293 294 294 296 297 295 294 297 292 284 280 278 277 275 275 279 284
279 278 279 281 283 286 289 291 292 293 297 302 303 301 294 294 297 298 300 300 301 298 292 291 291 294 297 297 296 297 295 295 295 293 284 275 274 273 272 268 270 272 274
276 277 279 280 283 285 289 292 291 295 296 300 303 299 294 297 299 301 303 303 299 295 296 295 296 297 297 297 300 297 295 296 297 289 280 276 276 273 269 263 261 264 264
274 276 278 279 282 284 287 290 294 295 299 304 303 296 294 297 301 303 303 299 296 297 297 297 298 299 297 299 299 298 297 298 291 286 283 281 277 273 267 263 257 255 257
272 274 275 276 280 284 288 291 294 297 303 307 301 294 294 299 301 303 299 296 297 297 300 300 301 302 304 304 300 298 298 293 289 288 281 278 275 270 264 261 256 251 248
273 276 279 281 282 284 288 292 295 297 304 303 301 297 298 299 299 299 296 298 299 300 303 302 302 307 307 301 299 300 294 286 288 284 280 276 274 270 263 258 253 248 246
272 275 278 281 283 284 288 293 294 298 304 299 301 299 298 295 296 296 298 300 300 302 304 308 310 308 305 301 303 295 287 288 284 279 273 274 273 273 270 255 248 242 240
272 274 278 281 282 285 290 292 294 302 301 301 301 301 296 291 293 296 300 302 305 306 309 313 312 309 303 304 299 295 288 287 280 277 281 284 278 271 266 254 244 241 234
274 278 277 279 283 286 288 292 296 298 302 301 302 296 292 290 293 300 304 308 309 309 313 313 311 307 305 305 301 293 288 284 285 286 295 291 276 265 265 254 244 238 231
276 277 277 281 286 288 289 292 300 299 306 298 298 293 292 291 299 305 310 311 311 314 314 314 310 307 312 306 299 293 291 282 287 293 300 288 270 257 254 247 240 231 216
274 276 281 281 281 285 288 293 299 301 303 299 291 290 287 297 303 308 309 309 309 310 308 306 311 314 318 308 298 296 295 287 295 298 296 290 274 251 238 229 224 220 210
278 282 282 283 283 287 291 296 298 296 297 288 286 287 297 303 306 305 307 304 305 307 309 313 317 319 321 314 304 297 285 292 303 300 300 298 278 245 219 218 219 212 196
283 286 283 282 283 287 287 296 295 293 285 283 286 297 299 303 303 305 303 304 309 313 316 324 325 324 322 313 303 284 297 297 304 307 296 289 276 268 255 205 166 171 177
Height
5851 5850 5849 5849 5849 5849 5849 5848 5849 5849 5849 5848 5847 5846 5845 5844 5844 5843 5842 5840 5839 5839 5837 5835 5835 5834 5832 5830 5829 5827 5825 5823 5821 5819 5818 5816 5814 5814 5813 5813 5813 5812 5811
5847 5846 5845 5845 5845 5844 5845 5845 5844 5844 5843 5842 5842 5841 5841 5840 5838 5836 5834 5833 5832 5830 5829 5828 5827 5825 5823 5821 5819 5817 5815 5812 5810 5809 5807 5805 5803 5801 5800 5800 5800 5799 5799
5843 5841 5840 5840 5840 5840 5840 5840 5840 5839 5837 5836 5835 5834 5834 5833 5831 5830 5829 5827 5825 5824 5822 5821 5820 5817 5815 5813 5810 5808 5804 5802 5800 5797 5795 5793 5791 5789 5787 5786 5785 5783 5782
5838 5837 5836 5836 5835 5835 5835 5834 5834 5833 5832 5831 5829 5827 5827 5827 5825 5823 5822 5821 5819 5817 5814 5811 5808 5807 5805 5802 5799 5797 5796 5792 5788 5786 5784 5782 5780 5778 5776 5775 5774 5773 5772
5831 5831 5831 5830 5829 5829 5828 5828 5827 5825 5824 5823 5822 5821 5821 5820 5818 5816 5813 5812 5811 5809 5807 5804 5801 5798 5795 5792 5789 5786 5782 5780 5777 5773 5770 5767 5765 5763 5761 5759 5758 5756 5754
5827 5826 5825 5824 5822 5821 5821 5819 5818 5817 5816 5815 5814 5814 5812 5810 5807 5806 5804 5802 5801 5799 5796 5793 5789 5785 5781 5778 5775 5772 5769 5766 5763 5759 5755 5751 5749 5747 5745 5741 5738 5737 5736
5821 5819 5818 5817 5814 5813 5811 5810 5808 5807 5805 5805 5804 5803 5802 5800 5798 5796 5794 5792 5789 5785 5782 5779 5775 5771 5769 5765 5761 5757 5753 5749 5746 5742 5739 5735 5732 5728 5724 5722 5719 5718 5715
5813 5811 5809 5808 5806 5804 5803 5801 5800 5797 5795 5793 5792 5791 5790 5788 5786 5785 5783 5781 5778 5774 5770 5766 5763 5760 5756 5753 5749 5745 5740 5735 5730 5726 5721 5718 5714 5709 5704 5701 5700 5696 5681
5804 5804 5802 5800 5799 5796 5793 5791 5789 5787 5784 5782 5779 5777 5775 5775 5775 5775 5773 5769 5766 5763 5758 5753 5749 5744 5739 5734 5731 5726 5721 5716 5712 5709 5704 5697 5691 5686 5680 5676 5674 5675 5678
5795 5794 5793 5791 5789 5788 5785 5782 5779 5776 5774 5771 5769 5766 5763 5760 5758 5758 5761 5757 5752 5750 5744 5738 5734 5728 5722 5718 5715 5710 5706 5701 5693 5687 5682 5674 5666 5660 5652 5648 5647 5648 5652
5785 5785 5784 5782 5780 5778 5776 5773 5769 5766 5763 5761 5757 5754 5751 5747 5743 5738 5737 5740 5737 5733 5725 5720 5715 5708 5704 5701 5697 5693 5689 5683 5677 5668 5659 5650 5642 5634 5629 5625 5622 5623 5626
5775 5774 5773 5771 5769 5767 5764 5762 5759 5756 5753 5749 5746 5742 5739 5736 5733 5728 5724 5720 5715 5713 5709 5705 5701 5695 5690 5685 5681 5676 5671 5665 5656 5647 5636 5627 5621 5617 5613 5611 5609 5605 5603
5764 5763 5761 5759 5758 5756 5753 5751 5748 5745 5742 5738 5735 5731 5726 5722 5718 5715 5711 5708 5703 5702 5695 5691 5685 5680 5675 5670 5664 5657 5651 5644 5635 5624 5614 5607 5605 5603 5601 5598 5597 5593 5588
5753 5752 5750 5749 5746 5744 5743 5740 5737 5733 5730 5726 5722 5718 5713 5709 5704 5700 5696 5692 5689 5685 5683 5677 5671 5664 5660 5654 5647 5639 5631 5622 5612 5604 5597 5592 5590 5588 5588 5586 5586 5584 5580
5742 5740 5738 5736 5735 5733 5731 5728 5726 5722 5718 5714 5710 5705 5699 5695 5691 5686 5681 5677 5672 5670 5669 5665 5657 5650 5643 5636 5628 5621 5609 5597 5588 5582 5577 5574 5573 5572 5573 5574 5575 5574 5576
5729 5727 5726 5724 5723 5721 5719 5717 5713 5710 5706 5702 5696 5691 5686 5682 5677 5672 5668 5663 5658 5655 5652 5647 5642 5634 5626 5618 5608 5598 5588 5578 5570 5564 5560 5557 5559 5559 5557 5560 5564 5563 5566
5715 5714 5713 5711 5710 5709 5707 5704 5701 5697 5692 5688 5684 5678 5673 5668 5663 5659 5654 5649 5645 5641 5640 5638 5628 5619 5610 5601 5590 5577 5568 5561 5556 5552 5548 5545 5543 5545 5545 5545 5549 5553 5554
5706 5703 5701 5700 5698 5697 5694 5691 5689 5684 5680 5675 5670 5665 5660 5656 5651 5646 5641 5637 5633 5629 5625 5622 5612 5602 5591 5580 5570 5560 5551 5545 5543 5539 5536 5532 5529 5527 5529 5531 5533 5537 5542
5693 5691 5690 5689 5687 5684 5683 5680 5676 5671 5666 5663 5657 5652 5647 5643 5638 5634 5629 5625 5621 5616 5609 5604 5597 5585 5574 5562 5552 5543 5537 5532 5528 5525 5521 5518 5516 5513 5513 5515 5518 5522 5527
5681 5680 5678 5677 5674 5672 5671 5667 5662 5657 5652 5648 5643 5638 5634 5630 5626 5621 5616 5612 5608 5602 5595 5587 5578 5569 5557 5544 5535 5530 5524 5518 5513 5511 5510 5506 5503 5501 5500 5500 5502 5506 5513
5667 5667 5666 5664 5662 5660 5658 5654 5649 5645 5640 5635 5629 5624 5622 5618 5613 5608 5604 5599 5594 5588 5580 5572 5562 5553 5540 5531 5523 5517 5512 5505 5501 5500 5498 5493 5490 5488 5487 5488 5491 5495 5502
5656 5655 5653 5652 5651 5648 5644 5640 5637 5634 5628 5621 5616 5612 5610 5606 5600 5596 5591 5585 5580 5573 5565 5557 5547 5538 5527 5517 5511 5506 5500 5496 5493 5492 5486 5482 5478 5477 5476 5477 5481 5486 5494
5643 5643 5641 5641 5639 5635 5630 5627 5625 5620 5614 5609 5604 5602 5598 5594 5589 5583 5577 5571 5565 5558 5550 5543 5535 5523 5515 5505 5500 5496 5492 5488 5485 5483 5477 5470 5465 5463 5464 5466 5471 5478 5487
5630 5630 5630 5628 5626 5623 5618 5615 5612 5608 5603 5598 5594 5590 5586 5582 5578 5572 5566 5560 5554 5547 5540 5532 5522 5514 5506 5498 5491 5487 5482 5479 5477 5473 5467 5460 5456 5454 5455 5459 5465 5473 5481
5617 5618 5616 5614 5613 5609 5605 5601 5598 5595 5590 5587 5584 5579 5575 5571 5568 5563 5557 5550 5543 5536 5528 5519 5511 5506 5498 5489 5484 5480 5476 5472 5470 5466 5460 5457 5455 5455 5456 5460 5464 5470 5477
5604 5604 5602 5600 5598 5595 5591 5588 5585 5581 5579 5576 5573 5569 5565 5561 5557 5552 5546 5540 5533 5526 5517 5510 5504 5498 5491 5483 5476 5473 5470 5467 5464 5460 5458 5456 5453 5455 5457 5459 5465 5470 5477